Location: Marse
(42.1502°N, 110.9866°W)
Time: 01:12:29
(UTC+00:00)

BEESAT - Pass Details

Date: 04 July 2022
Orbit: 700 x 706 km, 98.6° (Epoch: 09 August)

Event Time Altitude Azimuth Distance (km) Brightness Sun altitude
Rises 04:17:29 0° 8° (N) 3,104 ? -11.5°
Reaches altitude 10° 04:19:48 10° 3° (N) 2,182 ? -11.8°
Maximum altitude 04:24:25 51° 289° (WNW) 889 ? -12.3°
Drops below altitude 10° 04:29:01 10° 214° (SW) 2,170 ? -12.9°
Sets 04:31:18 0° 209° (SSW) 3,085 ? -13.2°
